Location: Clayton (historical)
(34.0300°N, 118.0259°W)
Time: 09:34:25
(UTC+00:00)

Hubble Space Telescope - Pass Details

Date: 30 January 2021
Orbit: 536 x 539 km, 28.5° (Epoch: 26 February)

Event Time Altitude Azimuth Distance (km) Brightness Sun altitude
Rises 01:59:29 0° 256° (WSW) 2,671 6.9 -8.6°
Reaches altitude 10° 02:03:32 10° 217° (SW) 1,779 4.3 -9.4°
Maximum altitude 02:04:27 11° 204° (SSW) 1,738 3.9 -9.6°
Drops below altitude 10° 02:05:23 10° 191° (S) 1,778 3.8 -9.8°
Sets 02:09:26 0° 152° (SSE) 2,666 4.2 -10.6°
